Date String (YYYY-MM-DD hh:mm:ss) UTC,Instrument flags,Ambient pressure (hPa),Sample flow (lpm),Bypass flow (lpm),Sample temperature (°C),Ambient temperature (°C),ASC tube jacket temperature (°C),LED temperature (°C),Box temperature (°C),Sample RH (%),Span deviation,Mass concentration (μg/m³),Mass concentration (μg/m³),Mass concentration (μg/m³)
DateTimeUTC,F1_M11,P_M11,Q1_M11,Q2_M11,T1_M11,T2_M11,T3_M11,T4_M11,T5_M11,U1_M11,ZSPAN_M11,X0_M11,X2_M11,X1_M11
2022-01-25 11:00:00,,0823.9,4.99,0.00,22.5,22.5,00.0,31.4,24.3,15.1,0000.0,0005.30,0003.29,0003.03
2022-01-25 11:01:00,,0823.9,5.00,0.00,22.6,23.2,00.0,31.5,24.6,15.0,0000.0,0005.49,0003.32,0003.04
2022-01-25 11:02:00,,0823.9,5.01,0.00,22.7,23.2,00.0,31.5,24.7,14.9,0000.0,0005.57,0003.32,0003.02
2022-01-25 11:03:00,,0823.9,5.00,0.00,22.7,23.0,00.0,31.5,24.7,14.9,0000.0,0005.56,0003.31,0003.00
2022-01-25 11:04:00,,0823.9,5.00,0.00,22.7,22.8,00.0,31.5,24.6,14.9,0000.0,0005.49,0003.27,0002.96
2022-01-25 11:05:00,,0823.9,5.00,0.00,22.7,22.6,00.0,31.5,24.6,14.9,0000.0,0005.48,0003.26,0002.93
2022-01-25 11:06:00,,0823.9,5.00,0.00,22.7,22.5,00.0,31.5,24.6,14.9,0000.0,0005.45,0003.26,0002.92
2022-01-25 11:07:00,,0823.9,4.99,0.00,22.7,22.4,00.0,31.5,24.5,14.9,0000.0,0005.09,0003.27,0002.90
2022-01-25 11:08:00,,0823.9,5.00,0.00,22.7,22.3,00.0,31.5,24.5,14.9,0000.0,0004.77,0003.25,0002.89
2022-01-25 11:09:00,,0823.9,5.00,0.00,22.7,22.2,00.0,31.6,24.5,14.9,0000.0,0004.85,0003.27,0002.89
2022-01-25 11:10:00,,0823.9,5.01,0.00,22.7,22.2,00.0,31.6,24.5,14.9,0000.0,0004.75,0003.26,0002.89
2022-01-25 11:11:00,,0823.9,5.01,0.00,22.7,22.1,00.0,31.6,24.5,14.9,0000.0,0004.67,0003.26,0002.88
2022-01-25 11:12:00,,0823.9,4.99,0.00,22.7,22.1,00.0,31.6,24.4,14.9,0000.0,0004.56,0003.24,0002.89
2022-01-25 11:13:00,,0823.9,4.99,0.00,22.6,22.0,00.0,31.6,24.4,14.9,0000.0,0004.46,0003.23,0002.90
2022-01-25 11:14:00,,0823.9,5.02,0.00,22.6,22.0,00.0,31.6,24.4,15.0,0000.0,0004.53,0003.24,0002.93
2022-01-25 11:15:00,,0823.9,4.99,0.00,22.6,22.0,00.0,31.5,24.4,15.0,0000.0,0004.57,0003.26,0002.97
2022-01-25 11:16:00,,0824.0,4.99,0.00,22.6,21.9,00.0,31.5,24.3,15.0,0000.0,0004.67,0003.28,0003.00
2022-01-25 11:17:00,,0824.0,5.01,0.00,22.6,21.9,00.0,31.5,24.3,15.0,0000.0,0004.63,0003.27,0003.02
2022-01-25 11:18:00,,0824.0,4.99,0.00,22.6,21.9,00.0,31.5,24.3,15.1,0000.0,0004.56,0003.26,0003.05
2022-01-25 11:19:00,,0824.0,4.99,0.00,22.5,21.9,00.0,31.5,24.3,15.1,0000.0,0004.62,0003.29,0003.09
2022-01-25 11:20:00,,0824.1,5.01,0.00,22.5,21.8,00.0,31.5,24.3,15.1,0000.0,0004.62,0003.29,0003.11
2022-01-25 11:21:00,,0824.1,5.00,0.00,22.5,21.8,00.0,31.5,24.3,15.1,0000.0,0004.69,0003.31,0003.13
2022-01-25 11:22:00,,0824.1,4.99,0.00,22.5,21.8,00.0,31.5,24.2,15.1,0000.0,0004.62,0003.31,0003.14
2022-01-25 11:23:00,,0824.1,5.01,0.00,22.5,21.8,00.0,31.5,24.2,15.1,0000.0,0004.64,0003.32,0003.15
2022-01-25 11:24:00,,0824.0,5.00,0.00,22.5,21.8,00.0,31.5,24.2,15.1,0000.0,0004.69,0003.34,0003.16
2022-01-25 11:25:00,,0824.1,4.99,0.00,22.4,21.8,00.0,31.5,24.2,15.1,0000.0,0004.66,0003.35,0003.17
2022-01-25 11:26:00,,0824.1,5.00,0.00,22.4,21.7,00.0,31.4,24.2,15.2,0000.0,0004.76,0003.34,0003.16
2022-01-25 11:27:00,,0824.1,5.01,0.00,22.4,21.7,00.0,31.4,24.2,15.2,0000.0,0004.72,0003.35,0003.17
2022-01-25 11:28:00,,0824.1,5.00,0.00,22.4,21.7,00.0,31.4,24.2,15.2,0000.0,0004.88,0003.37,0003.18
2022-01-25 11:29:00,,0824.0,5.00,0.00,22.4,21.7,00.0,31.4,24.1,15.2,0000.0,0004.94,0003.38,0003.18
2022-01-25 11:30:00,,0824.1,5.01,0.00,22.4,21.7,00.0,31.4,24.1,15.2,0000.0,0005.01,0003.39,0003.18
2022-01-25 11:31:00,,0824.1,5.00,0.00,22.4,21.7,00.0,31.4,24.1,15.2,0000.0,0005.06,0003.39,0003.18
2022-01-25 11:32:00,,0824.1,4.99,0.00,22.4,21.7,00.0,31.4,24.1,15.2,0000.0,0004.99,0003.38,0003.18
2022-01-25 11:33:00,,0824.1,5.00,0.00,22.3,21.6,00.0,31.4,24.1,15.2,0000.0,0005.00,0003.38,0003.18
2022-01-25 11:34:00,,0824.1,5.00,0.00,22.3,21.6,00.0,31.4,24.1,15.2,0000.0,0004.94,0003.36,0003.17
2022-01-25 11:35:00,,0824.1,5.00,0.00,22.3,21.6,00.0,31.3,24.1,15.2,0000.0,0005.09,0003.37,0003.16
2022-01-25 11:36:00,,0824.1,5.00,0.00,22.3,21.6,00.0,31.3,24.1,15.2,0000.0,0005.20,0003.38,0003.15
2022-01-25 11:37:00,,0824.1,5.02,0.00,22.3,21.6,00.0,31.3,24.1,15.3,0000.0,0005.31,0003.39,0003.14
2022-01-25 11:38:00,,0824.1,5.00,0.00,22.3,21.6,00.0,31.3,24.0,15.3,0000.0,0005.31,0003.39,0003.13
2022-01-25 11:39:00,,0824.1,5.00,0.00,22.3,21.6,00.0,31.3,24.0,15.3,0000.0,0005.26,0003.39,0003.14
2022-01-25 11:40:00,,0824.1,5.00,0.00,22.3,21.8,00.0,31.3,24.1,15.3,0000.0,0005.35,0003.42,0003.14
2022-01-25 11:41:00,,0824.2,5.00,0.00,22.4,22.4,00.0,31.3,24.3,15.2,0000.0,0005.39,0003.40,0003.13
2022-01-25 11:42:00,,0824.2,4.99,0.00,22.5,23.1,00.0,31.4,24.5,15.2,0000.0,0005.42,0003.41,0003.14
2022-01-25 11:43:00,,0824.2,5.00,0.00,22.6,23.1,00.0,31.4,24.6,15.1,0000.0,0005.64,0003.42,0003.15
2022-01-25 11:44:00,,0824.2,5.01,0.00,22.6,22.9,00.0,31.4,24.6,15.0,0000.0,0005.73,0003.43,0003.15
2022-01-25 11:45:00,,0824.2,4.98,0.00,22.6,22.7,00.0,31.4,24.5,15.0,0000.0,0005.93,0003.49,0003.16
2022-01-25 11:46:00,,0824.2,5.01,0.00,22.6,22.6,00.0,31.5,24.5,15.0,0000.0,0005.82,0003.49,0003.19
2022-01-25 11:47:00,,0824.2,5.00,0.00,22.6,22.4,00.0,31.5,24.5,15.0,0000.0,0005.84,0003.51,0003.20
2022-01-25 11:48:00,,0824.2,5.00,0.00,22.6,22.3,00.0,31.5,24.5,15.0,0000.0,0005.73,0003.52,0003.21
2022-01-25 11:49:00,,0824.2,5.00,0.00,22.6,22.2,00.0,31.5,24.4,15.0,0000.0,0005.90,0003.56,0003.23
2022-01-25 11:50:00,,0824.2,4.99,0.00,22.6,22.1,00.0,31.5,24.4,15.1,0000.0,0005.94,0003.57,0003.24
2022-01-25 11:51:00,,0824.3,4.99,0.00,22.6,22.1,00.0,31.5,24.4,15.1,0000.0,0005.89,0003.57,0003.24
2022-01-25 11:52:00,,0824.3,5.00,0.00,22.6,22.0,00.0,31.5,24.3,15.1,0000.0,0005.86,0003.60,0003.25
2022-01-25 11:53:00,,0824.3,5.00,0.00,22.6,22.0,00.0,31.5,24.3,15.1,0000.0,0005.82,0003.62,0003.26
2022-01-25 11:54:00,,0824.3,4.99,0.00,22.5,21.9,00.0,31.5,24.3,15.1,0000.0,0005.64,0003.64,0003.28
2022-01-25 11:55:00,,0824.3,5.02,0.00,22.5,21.9,00.0,31.5,24.3,15.1,0000.0,0005.60,0003.65,0003.29
2022-01-25 11:56:00,,0824.3,5.00,0.00,22.5,21.8,00.0,31.5,24.2,15.2,0000.0,0005.49,0003.64,0003.31
2022-01-25 11:57:00,,0824.3,5.00,0.00,22.5,21.8,00.0,31.5,24.2,15.2,0000.0,0005.51,0003.66,0003.33
2022-01-25 11:58:00,,0824.3,5.00,0.00,22.5,21.8,00.0,31.5,24.2,15.2,0000.0,0005.71,0003.66,0003.35
2022-01-25 11:59:00,,0824.3,5.00,0.00,22.4,21.8,00.0,31.4,24.2,15.2,0000.0,0006.22,0003.71,0003.38
